Regional Weather Roundup
Issued by NWS Charleston, WV

Home | Current Version | Previous Version | Graphics & Text | Print | Product List | Glossary On
Versions: 1 2 3 4 5 6 7 8 9 10 11 12 13 14 15 16 17 18 19 20 21 22 23 24 25 26 27 28 29 30 31 32 33 34 35 36 37 38 39 40 41 42 43 44 45 46 47 48 49 50
000
ASUS41 KRLX 011510
RWRRLX
West Virginia Regional Weather Roundup
National Weather Service Charleston WV
1100 AM EDT FRI AUG 01 2014

Note: "fair" indicates few or no clouds below 12,000 feet with no
significant weather and/or obstructions to visibility.

WVZ003-011600-
Northern Panhandle of West Virginia

CITY           SKY/WX    TMP DP  RH WIND       PRES   REMARKS
WHEELING       MOSUNNY   74  62  66 VRB5      30.17R
$$

WVZ009-011600-
Northwest West Virginia

CITY           SKY/WX    TMP DP  RH WIND       PRES   REMARKS
PARKERSBURG    MOSUNNY   73  64  73 CALM      30.17S
$$

WVZ006-011600-
Western West Virginia

CITY           SKY/WX    TMP DP  RH WIND       PRES   REMARKS
HUNTINGTON     MOSUNNY   75  65  70 CALM      30.12S
$$

WVZ015-011600-
West Central West Virginia

CITY           SKY/WX    TMP DP  RH WIND       PRES   REMARKS
CHARLESTON     MOSUNNY   76  64  66 VRB5      30.14S
$$

WVZ031-011600-
North Central West Virginia

CITY           SKY/WX    TMP DP  RH WIND       PRES   REMARKS
CLARKSBURG     PTSUNNY   74  62  66 CALM      30.17S
MORGANTOWN     MOSUNNY   77  60  55 CALM      30.18F
$$

WVZ035-042-045-011600-
South Central West Virginia

CITY           SKY/WX    TMP DP  RH WIND       PRES   REMARKS
BECKLEY        CLOUDY    67  57  70 SE8       30.22S
BLUEFIELD      PTSUNNY   67  57  70 CALM      30.24S
LEWISBURG      CLOUDY    66  60  81 E3        30.24S
$$

WVZ047-011600-
Northern Mountains of West Virginia

CITY           SKY/WX    TMP DP  RH WIND       PRES   REMARKS
ELKINS         PTSUNNY   65  57  75 CALM      30.22S
$$

WVZ052-011600-
Eastern Panhandle of West Virginia

CITY           SKY/WX    TMP DP  RH WIND       PRES   REMARKS
MARTINSBURG    CLOUDY    74  62  66 S3        30.19R
PETERSBURG     CLOUDY    69  59  68 CALM      30.21R
$$


USA.gov is the U.S. government's official web portal to all federal, state and local government web resources and services.